Regional Weather Roundup
Issued by NWS Sterling, VA

Home | Current Version | Previous Version | Graphics & Text | Print | Product List | Glossary On
Versions: 1 2 3 4 5 6 7 8 9 10 11 12 13 14 15 16 17 18 19 20 21 22 23 24 25 26 27 28 29 30 31 32 33 34 35 36 37 38 39 40 41 42 43 44 45 46 47 48 49 50
597
ASUS41 KLWX 201011
RWRLWX

REGIONAL WEATHER ROUNDUP
NATIONAL WEATHER SERVICE BALTIMORE MD/WASHINGTON DC
600 AM EDT THU JUL 20 2017

Note: "FAIR" indicates few or no clouds below 12,000 feet
with no significant weather and/or obstructions to visibility.
 TC=TEMPERATURE CELSIUS

 * =Non NWS site. Station does not report precipitation (e.g. rain,
    snow, etc.), thunder, or fog.

DCZ001-MDZ009-015-VAZ040>042-051-053>054-201100-
WASHINGTON METRO

CITY           SKY/WX    TMP DP  RH WIND       PRES   REMARKS
WASHINGTON NAT MOCLDY    79  74  84 SW5       30.01R
DULLES         MOCLDY    72  70  93 CALM      30.01S
ANDREWS AFB    CLEAR     74  70  88 SW5       30.01R
FT BELVOIR     CLEAR     73  71  96 CALM      30.01R
QUANTICO       PTCLDY    76  74  93 NW3       30.02R
LEESBURG*      CLEAR     73  73 100 SW3       30.03S
MANASSAS*      CLEAR     71  70  96 CALM      30.02R FOG
GAITHERSBURG*  CLEAR     71  70  96 CALM      30.03R FOG

$$

MDZ006>007-011-014-201100-
BALTIMORE METRO

CITY           SKY/WX    TMP DP  RH WIND       PRES   REMARKS
BWI AIRPORT    MOCLDY    73  73 100 CALM      29.99S
MD SCIENCE CTR   N/A     82  74  76 MISG      29.99S
MARTIN STATE   PTCLDY    77  75  94 CALM      30.00S
ANNAPOLIS      CLEAR     76  76 100 CALM      29.99R
FORT MEADE*    CLEAR     70  68  94 CALM      30.02S

$$

MDZ012-015-019>023-201100-
MARYLAND EASTERN SHORE

CITY           SKY/WX    TMP DP  RH WIND       PRES   REMARKS
OCEAN CITY     CLEAR     76  75  97 W5        30.01S
SALISBURY      NOT AVBL
BAY BRIDGE AP* CLEAR     77  73  88 CALM      29.99S
CAMBRIDGE*     CLEAR     73  72  94 SE3       30.00S
EASTON*        PTCLDY    77  72  83 CALM      30.03F

$$

MDZ017>025-201100-
SOUTHERN MARYLAND

CITY           SKY/WX    TMP DP  RH WIND       PRES   REMARKS
PATUXENT RIVER PTCLDY    76  72  87 SW7       29.99F
ST INIGOES     CLEAR     77  72  84 SW6       30.00S
LEONARDTOWN*   CLEAR    N/A N/A N/A CALM      30.02F

$$

MDZ003>005-201100-
NORTH CENTRAL MARYLAND

CITY           SKY/WX    TMP DP  RH WIND       PRES   REMARKS
FREDERICK*     CLEAR     73  73 100 SE3       30.03S
HAGERSTOWN APT CLEAR     75  70  84 CALM      30.02S HAZE
WESTMINSTER*   CLEAR     75  72  88 CALM      30.02S

$$

MDZ501>502-201100-
WESTERN MARYLAND

CITY           SKY/WX    TMP DP  RH WIND       PRES   REMARKS
OAKLAND*       CLEAR     64  64 100 SW5       30.14R
CUMBERLAND*    CLEAR     68  68 100 CALM      30.09R

$$

VAZ025>031-201100-
SHENANDOAH VALLEY

CITY           SKY/WX    TMP DP  RH WIND       PRES   REMARKS
WINCHESTER*    CLEAR     72  64  78 SW5       30.03S
FRONT ROYAL*   CLEAR     72  68  88 S7        30.03F
LURAY*         CLEAR     70  68  94 CALM      30.06S
NEW MARKET*    CLEAR     68  65  90 SW3       30.07S
STAUNTON*      CLEAR     65  64  97 CALM      30.10F FOG
WAYNESBORO*    CLEAR     67  66  98 CALM      30.10S

$$

WVZ021-048>050-054>055-201100-
EASTERN WEST VIRGINIA PANHANDLE

CITY           SKY/WX    TMP DP  RH WIND       PRES   REMARKS
MARTINSBURG    CLEAR     70  67  90 CALM      30.02R FOG
PETERSBURG*    CLEAR     65  64  97 CALM      30.09R FOG

$$

VAZ036>039-050-201100-
CENTRAL FOOTHILLS

CITY           SKY/WX    TMP DP  RH WIND       PRES   REMARKS
CHARLOTTESVILL CLEAR     72  69  90 CALM      30.03S
CULPEPER*        N/A     70  70 100 CALM      30.03S FOG
ORANGE*        CLEAR     68  68 100 CALM      30.03S
GORDONSVILLE*  CLEAR     68  68  99 CALM      30.03S
WARRENTON*     FOG       72  69  90 CALM      30.02R VSB 3/4

$$

VAZ055>057-201100-
NORTH AND CENTRAL PIEDMONT

CITY           SKY/WX    TMP DP  RH WIND       PRES   REMARKS
FREDERICKSBRG* CLEAR     72  72 100 CALM      30.01R
STAFFORD*      CLEAR     68  68 100 CALM      30.06R FOG

$$

NCZ024-NYZ072-PAZ021-071-VAZ022-071-201100-
OTHER REGIONAL OBSERVATIONS

CITY           SKY/WX    TMP DP  RH WIND       PRES   REMARKS
NEW YORK CITY  CLEAR     79  70  74 CALM      29.99S
PHILADELPHIA   MOCLDY    79  74  84 SW5       29.98S
PITTSBURGH     CLOUDY    73  69  87 CALM      30.06R
ROANOKE        CLEAR     70  65  84 CALM      30.11S
RICHMOND       PTCLDY    73  70  90 SW5       30.02F
RALEIGH        PTCLDY    72  71  97 W3        30.06S

$$

ANZ530>537-201100-
MARINE OBSERVATIONS

STATION/POSITION TIME  TEMP    WIND        PRES
                       AIR SEA DIR/SP/G
                 (UTC) (F)     (DEG/KT/KT) (MB)
THOMAS PT LIGHT  1000   81 82  280/  6/  6   N/A
BALT KEY BRIDGE  0948   79     220/  4/  4 1015.3S
COVE POINT       0948   80     260/ 13/ 17 1016.1F
LEWISETTA        0948   78 85  260/  7/  8 1015.9F
SOLOMONS ISLAND  0948   79 83  240/  5/  7   N/A
PINEY POINT      0948          280/  6/  7   N/A

$$





USA.gov is the U.S. government's official web portal to all federal, state and local government web resources and services.